Beatrice, NE

2:50 PM CDT on September 27, 2016 (GMT -0500)
Beatrice Municipal

Weather History for KBIE - January, 2002

Change the Weather History Date:

Tuesday, January 15, 2002

  Actual Average Record
Temperature  
Mean Temperature 24 °F -  
Max Temperature 33 °F 35 °F 64 °F (2006)
Min Temperature 14 °F 16 °F -7 °F (2009)
Degree Days  
Heating Degree Days 42    
Moisture  
Dew Point 13 °F    
Average Humidity 65    
Maximum Humidity 86    
Minimum Humidity 44    
Precipitation  
Precipitation 0.00 in - - ()
Sea Level Pressure  
Sea Level Pressure 30.19 in    
Wind  
Wind Speed 7 mph (North)    
Max Wind Speed 12 mph    
Max Gust Speed 16 mph    
Visibility 10 miles    
Events      
Averages and records for this station are not official NWS values.
T = Trace of Precipitation, MM = Missing Value Source: NWS Daily Summary

Daily Weather History Graph

Daily Weather History Graph

Search for Another Location

Airport or City:

Trip Planner

Search our weather history database for the weather conditions in past years. The results will help you decide how hot, cold, wet, or windy it might be!

Date:

Astronomy

Jan. 15, 2002 Rise Set
Actual Time 7:47 AM CST 5:25 PM CST
Civil Twilight 7:17 AM CST 5:55 PM CST
Nautical Twilight 6:44 AM CST 6:28 PM CST
Astronomical Twilight 6:11 AM CST 7:01 PM CST
Moon 9:26 AM CST (1/15) 7:32 PM CST (1/15)
Length of Visible Light 10h 37m
Length of Day
9h 37m
Waxing Crescent, 5% of the Moon is Illuminated
Jan 15
Waxing Crescent
Jan 21
First Quarter
Jan 28
Full
Feb 4
Last Quarter
Feb 12
New

Hourly Weather History & Observations

Time (CST) Temp. Windchill Dew Point Humidity Pressure Visibility Wind Dir Wind Speed Gust Speed Precip Events Conditions
12:11 AM 19.4 °F 10.4 °F 14.0 °F 80% 30.16 in 10.0 mi West 6.9 mph - N/A   Clear
12:30 AM 19.4 °F 10.4 °F 14.0 °F 80% 30.15 in 10.0 mi West 6.9 mph - N/A   Clear
12:51 AM 19.4 °F 11.5 °F 12.2 °F 74% 30.16 in 10.0 mi West 5.8 mph - N/A   Clear
1:10 AM 19.4 °F 11.5 °F 14.0 °F 80% 30.16 in 10.0 mi West 5.8 mph - N/A   Clear
1:31 AM 19.4 °F 11.5 °F 12.2 °F 74% 30.17 in 10.0 mi West 5.8 mph - N/A   Clear
1:50 AM 19.4 °F 11.5 °F 12.2 °F 74% 30.17 in 10.0 mi NNE 5.8 mph - N/A   Clear
2:11 AM 17.6 °F 9.3 °F 12.2 °F 79% 30.18 in 10.0 mi West 5.8 mph - N/A   Clear
2:30 AM 17.6 °F 8.2 °F 10.4 °F 73% 30.19 in 10.0 mi NNW 6.9 mph - N/A   Clear
3:10 AM 17.6 °F 7.3 °F 10.4 °F 73% 30.20 in 10.0 mi West 8.1 mph - N/A   Clear
3:30 AM 17.6 °F 7.3 °F 12.2 °F 79% 30.21 in 10.0 mi West 8.1 mph - N/A   Clear
3:50 AM 17.6 °F 8.2 °F 12.2 °F 79% 30.21 in 10.0 mi West 6.9 mph - N/A   Clear
4:10 AM 17.6 °F 9.3 °F 12.2 °F 79% 30.21 in 10.0 mi West 5.8 mph - N/A   Clear
4:31 AM 17.6 °F 8.2 °F 10.4 °F 73% 30.21 in 10.0 mi West 6.9 mph - N/A   Clear
4:50 AM 17.6 °F 7.3 °F 10.4 °F 73% 30.21 in 10.0 mi West 8.1 mph - N/A   Scattered Clouds
5:30 AM 15.8 °F 7.2 °F 8.6 °F 73% 30.23 in 10.0 mi West 5.8 mph - N/A   Clear
6:10 AM 17.6 °F - 10.4 °F 73% 30.23 in 10.0 mi Calm Calm - N/A   Clear
6:31 AM 15.8 °F 8.6 °F 8.6 °F 73% 30.23 in 10.0 mi WNW 4.6 mph - N/A   Clear
6:52 AM 14.0 °F 5.1 °F 8.6 °F 79% 30.24 in 10.0 mi WNW 5.8 mph - N/A   Clear
7:10 AM 14.0 °F 8.2 °F 8.6 °F 79% 30.24 in 10.0 mi West 3.5 mph - N/A   Clear
7:31 AM 15.8 °F 7.2 °F 10.4 °F 79% 30.25 in 10.0 mi WNW 5.8 mph - N/A   Clear
7:50 AM 15.8 °F 8.6 °F 10.4 °F 79% 30.26 in 10.0 mi WNW 4.6 mph - N/A   Clear
8:11 AM 15.8 °F - 8.6 °F 73% 30.26 in 10.0 mi Calm Calm - N/A   Clear
8:31 AM 15.8 °F 10.2 °F 8.6 °F 73% 30.26 in 10.0 mi West 3.5 mph - N/A   Clear
8:50 AM 19.4 °F - 15.8 °F 86% 30.27 in 10.0 mi Calm Calm - N/A   Clear
9:11 AM 21.2 °F 13.6 °F 15.8 °F 80% 30.27 in 10.0 mi NW 5.8 mph - N/A   Clear
9:30 AM 24.8 °F 14.0 °F 15.8 °F 69% 30.27 in 10.0 mi NNW 11.5 mph - N/A   Clear
9:51 AM 24.8 °F 14.0 °F 15.8 °F 69% 30.27 in 10.0 mi NNW 11.5 mph - N/A   Clear
10:10 AM 24.8 °F 14.0 °F 15.8 °F 69% 30.27 in 10.0 mi North 11.5 mph - N/A   Clear
10:30 AM 26.6 °F 16.8 °F 14.0 °F 59% 30.27 in 10.0 mi North 10.4 mph 16.1 mph N/A   Clear
10:51 AM 26.6 °F 16.8 °F 15.8 °F 64% 30.28 in 10.0 mi North 10.4 mph - N/A   Clear
11:12 AM 26.6 °F 17.5 °F 15.8 °F 64% 30.27 in 10.0 mi North 9.2 mph - N/A   Clear
11:30 AM 28.4 °F 20.4 °F 12.2 °F 51% 30.27 in 10.0 mi North 8.1 mph - N/A   Clear
11:53 AM 28.4 °F 21.2 °F 12.2 °F 51% 30.26 in 10.0 mi NNE 6.9 mph - N/A   Clear
12:14 PM 28.4 °F 22.2 °F 14.0 °F 55% 30.24 in 10.0 mi NE 5.8 mph - N/A   Clear
12:30 PM 30.2 °F 22.6 °F 15.8 °F 55% 30.22 in 10.0 mi NNE 8.1 mph - N/A   Clear
12:50 PM 30.2 °F 23.4 °F 15.8 °F 55% 30.21 in 10.0 mi NE 6.9 mph - N/A   Clear
1:10 PM 32.0 °F 26.4 °F 15.8 °F 51% 30.20 in 10.0 mi NE 5.8 mph - N/A   Clear
1:31 PM 32.0 °F 24.2 °F 14.0 °F 48% 30.19 in 10.0 mi NE 9.2 mph - N/A   Clear
1:50 PM 32.0 °F 25.6 °F 14.0 °F 48% 30.18 in - East 6.9 mph - N/A   Clear
2:10 PM 30.2 °F 24.3 °F 14.0 °F 51% 30.16 in - ENE 5.8 mph - N/A   Clear
3:30 PM 32.0 °F 24.2 °F 14.0 °F 48% 30.13 in - ENE 9.2 mph - N/A   Clear
3:51 PM 33.8 °F 25.8 °F 14.0 °F 44% 30.13 in 10.0 mi East 10.4 mph - N/A   Clear
4:33 PM 30.2 °F 21.9 °F 14.0 °F 51% 30.12 in 10.0 mi ENE 9.2 mph - N/A   Clear
4:50 PM 30.2 °F 23.4 °F 15.8 °F 55% 30.12 in 10.0 mi East 6.9 mph - N/A   Clear
5:11 PM 30.2 °F 22.6 °F 14.0 °F 51% 30.12 in 10.0 mi East 8.1 mph - N/A   Clear
5:33 PM 28.4 °F 22.2 °F 12.2 °F 51% 30.11 in 10.0 mi East 5.8 mph - N/A   Clear
5:50 PM 28.4 °F 22.2 °F 14.0 °F 55% 30.11 in 10.0 mi ENE 5.8 mph - N/A   Clear
6:31 PM 28.4 °F 21.2 °F 14.0 °F 55% 30.10 in 10.0 mi ENE 6.9 mph - N/A   Clear
6:50 PM 28.4 °F 20.4 °F 14.0 °F 55% 30.09 in 10.0 mi ENE 8.1 mph - N/A   Clear
7:32 PM 28.4 °F 21.2 °F 15.8 °F 59% 30.09 in 10.0 mi ENE 6.9 mph - N/A   Clear
7:50 PM 28.4 °F 22.2 °F 15.8 °F 59% 30.09 in 10.0 mi ENE 5.8 mph - N/A   Clear
8:12 PM 28.4 °F 22.2 °F 15.8 °F 59% 30.09 in 10.0 mi ENE 5.8 mph - N/A   Scattered Clouds
8:33 PM 28.4 °F 22.2 °F 15.8 °F 59% 30.09 in 10.0 mi NE 5.8 mph - N/A   Scattered Clouds
8:50 PM 28.4 °F 21.2 °F 14.0 °F 55% 30.08 in 10.0 mi ENE 6.9 mph - N/A   Scattered Clouds
9:12 PM 28.4 °F 21.2 °F 15.8 °F 59% 30.07 in 10.0 mi ENE 6.9 mph - N/A   Clear
9:30 PM 28.4 °F 20.4 °F 15.8 °F 59% 30.06 in 10.0 mi ENE 8.1 mph - N/A   Clear
10:30 PM 26.6 °F 17.5 °F 15.8 °F 64% 30.06 in 10.0 mi NNE 9.2 mph - N/A   Clear
10:52 PM 26.6 °F 18.2 °F 15.8 °F 64% 30.05 in 10.0 mi NE 8.1 mph - N/A   Clear
11:10 PM 26.6 °F 17.5 °F 15.8 °F 64% 30.05 in 10.0 mi NNE 9.2 mph - N/A   Clear
11:31 PM 26.6 °F 17.5 °F 15.8 °F 64% 30.04 in 10.0 mi NNE 9.2 mph - N/A   Clear
11:52 PM 26.6 °F 17.5 °F 17.6 °F 69% 30.04 in 10.0 mi NE 9.2 mph - N/A   Clear